Location: Newcastle Observatory
(43.9158°N, 78.5831°W)
Time: 18:14:39
(UTC-05:00)

Amateur Radio Satellites - All Passes

Search period start: 06 February 2016 17:44
Search period end: 07 February 2016 17:44
Location: Newcastle Observatory, 43.9158°N, 78.5831°W

Satellite Date Start Highest point End Downlink Frequencies (MHz)
Time Altitude Azimuth
Cubesat XI-IV 06 Feb 17:50:27 17:55:45 77° 256° (WSW) 18:01:08 437.490
STARS 06 Feb 17:51:49 17:53:25 12° 301° (WNW) 17:55:03 437.465
CUBESAT XI-V 06 Feb 17:52:09 17:56:51 63° 101° (E) 18:01:30 437.345
GOMX 1 06 Feb 17:53:42 17:58:36 35° 69° (ENE) 18:03:21 467.674
DOVE 4 06 Feb 17:55:21 17:59:00 20° 64° (ENE) 18:02:32 437.250
HO-68 06 Feb 17:57:18 18:02:27 22° 54° (NE) 18:07:35 435.675
BRITE-PL 06 Feb 18:05:28 18:11:10 80° 75° (ENE) 18:16:49 437.365/2234.400
Cosmos 2504 06 Feb 18:05:31 18:12:57 33° 277° (W) 18:20:01 435.465 / 435.565
Cosmos 2491 06 Feb 18:07:11 18:12:48 18° 302° (WNW) 18:18:28 435.465 / 435.565
CANX-2 06 Feb 18:12:30 18:13:34 11° 60° (ENE) 18:14:38 2200.000
RS-15 06 Feb 18:14:02 18:24:11 31° 18° (NNE) 18:34:36 29.354- 29.394
PCSat 06 Feb 18:25:31 18:26:58 11° 29° (NNE) 18:28:24 145.827
STRAND 1 06 Feb 18:39:04 18:43:20 25° 94° (E) 18:47:35 437.568
LilacSat-2 06 Feb 18:42:42 18:45:35 20° 266° (W) 18:48:29 437.200
O/OREOS (USA 219) 06 Feb 18:44:38 18:49:13 75° 248° (WSW) 18:53:48 437.305
ISS 06 Feb 18:57:29 19:00:28 33° 340° (NNW) 19:03:27 145.825
CUTE 1.7 + AOD 2 06 Feb 19:00:49 19:04:29 30° 69° (ENE) 19:08:11 437.475
BEESAT 3 06 Feb 19:01:50 19:05:41 44° 310° (NW) 19:09:32 437.485
COMPASS 1 06 Feb 19:07:07 19:10:10 20° 66° (ENE) 19:13:15 437.405
AIST 2 06 Feb 19:08:52 19:11:32 17° 111° (ESE) 19:14:13 435.215
AO-85 06 Feb 19:11:09 19:15:57 34° 44° (NE) 19:20:24 145.980
SEEDS 06 Feb 19:13:48 19:17:28 31° 69° (ENE) 19:21:11 437.485
CINEMA 3 06 Feb 19:16:26 19:20:47 39° 71° (ENE) 19:24:59 145.822/145.860
BEESAT 2 06 Feb 19:19:17 19:23:09 45° 310° (NW) 19:27:03 435.950
CUTE-I 06 Feb 19:21:36 19:23:57 13° 272° (W) 19:26:19 437.470
GONETS M04 06 Feb 19:28:51 19:36:48 36° 69° (ENE) 19:44:42
CUBESAT XI-V 06 Feb 19:30:51 19:33:44 16° 298° (WNW) 19:36:35 437.345
PRISM 06 Feb 19:30:54 19:34:19 24° 95° (E) 19:37:41 437.425
DOVE 4 06 Feb 19:31:14 19:36:20 56° 260° (W) 19:41:13 437.250
GOMX 1 06 Feb 19:31:44 19:36:38 33° 265° (W) 19:41:25 467.674
Cosmos 2499 06 Feb 19:32:05 19:37:13 17° 56° (NE) 19:42:09 435.465 / 435.565
FUNcube-1 06 Feb 19:37:32 19:39:03 12° 61° (ENE) 19:40:35 145.935
AAUSAT CUBESAT 2 06 Feb 19:38:33 19:42:19 35° 70° (ENE) 19:46:07 437.432
HO-68 06 Feb 19:42:08 19:49:18 85° 252° (WSW) 19:56:34 435.675
CANX-2 06 Feb 19:44:36 19:48:48 80° 257° (WSW) 19:53:03 2200.000
BRITE-PL 06 Feb 19:46:50 19:50:11 16° 272° (W) 19:53:32 437.365/2234.400
CUBEBUG 2 06 Feb 19:48:57 19:52:47 31° 69° (ENE) 19:56:31 437.445
DELFI C3 06 Feb 19:49:37 19:50:38 11° 61° (ENE) 19:51:38 145.870
UWE-3 06 Feb 19:57:45 20:01:24 28° 68° (ENE) 20:05:00 435.000/436.395/437.385
PCSat 06 Feb 20:06:41 20:11:52 43° 51° (NE) 20:17:01 145.827
Oscar 11 06 Feb 20:13:20 20:17:16 37° 70° (ENE) 20:21:15 145.826/435.025
STRAND 1 06 Feb 20:17:48 20:22:40 42° 291° (WNW) 20:27:29 437.568
RS-15 06 Feb 20:27:33 20:39:36 65° 48° (NE) 20:51:52 29.354- 29.394
ISS 06 Feb 20:35:04 20:37:36 20° 1° (N) 20:40:06 145.825
CUTE 1.7 + AOD 2 06 Feb 20:36:52 20:40:20 25° 266° (W) 20:43:50 437.475
COMPASS 1 06 Feb 20:41:41 20:45:31 37° 263° (W) 20:49:24 437.405
AIST 2 06 Feb 20:45:33 20:49:38 53° 308° (NW) 20:53:45 435.215
SEEDS 06 Feb 20:49:52 20:53:13 23° 266° (W) 20:56:37 437.485
AO-85 06 Feb 20:51:46 20:56:33 39° 245° (WSW) 21:00:57 145.980
CINEMA 3 06 Feb 20:54:23 20:58:02 22° 266° (W) 21:01:35 145.822/145.860
ZACube-1 06 Feb 20:59:30 21:03:46 90° 120° (ESE) 21:07:58 437.345
PRISM 06 Feb 21:05:57 21:09:40 31° 292° (WNW) 21:13:21 437.425
FUNcube-1 06 Feb 21:10:33 21:14:47 72° 258° (WSW) 21:18:58 145.935
AIST 1 06 Feb 21:14:27 21:17:36 19° 70° (ENE) 21:20:43
AAUSAT CUBESAT 2 06 Feb 21:14:50 21:17:56 20° 267° (W) 21:21:03 437.432
AISAT 06 Feb 21:19:05 21:20:36 12° 59° (ENE) 21:22:08 437.250
DELFI C3 06 Feb 21:21:01 21:24:58 72° 258° (WSW) 21:28:58 145.870
Cosmos 2499 06 Feb 21:23:30 21:32:07 75° 80° (E) 21:40:03 435.465 / 435.565
ESTCUBE 1 06 Feb 21:25:28 21:27:53 14° 61° (ENE) 21:30:19 437.505/2401.250
GONETS M04 06 Feb 21:25:29 21:33:57 55° 270° (W) 21:42:26
CUBEBUG 2 06 Feb 21:25:48 21:29:25 25° 265° (W) 21:32:58 437.445
HO-68 06 Feb 21:33:59 21:38:01 16° 272° (W) 21:42:05 435.675
UWE-3 06 Feb 21:34:09 21:37:50 27° 265° (W) 21:41:28 435.000/436.395/437.385
ANTELSAT 06 Feb 21:38:12 21:40:37 14° 91° (E) 21:43:01 437.575/2403.000
TIGRISAT 06 Feb 21:46:03 21:48:50 17° 92° (E) 21:51:39 435.000
CUBEBUG 1 06 Feb 21:47:44 21:50:40 18° 63° (ENE) 21:53:36 437.445
HUMSAT D 06 Feb 21:49:29 21:53:35 84° 255° (WSW) 21:57:42 437.325/437.525
UKube-1 06 Feb 21:50:04 21:53:16 20° 64° (ENE) 21:56:28 .
Oscar 11 06 Feb 21:50:16 21:53:31 21° 267° (W) 21:56:49 145.826/435.025
PCSat 06 Feb 21:50:24 21:55:07 31° 250° (WSW) 21:59:48 145.827
DX 1 06 Feb 21:55:05 21:58:45 26° 66° (ENE) 22:02:26 434.975-435.025
ISS 06 Feb 22:11:40 22:14:42 34° 21° (NNE) 22:17:42 145.825
50 SAT 06 Feb 22:16:34 22:20:04 42° 72° (ENE) 22:23:37 437.505
UNISAT 6 06 Feb 22:28:17 22:32:29 49° 100° (E) 22:36:44 437.425
AIST 2 06 Feb 22:28:18 22:29:05 10° 329° (NNW) 22:29:52 435.215
NANOSAT C BR1 06 Feb 22:28:36 22:29:55 11° 89° (E) 22:31:13 145.865
DUCHIFAT 1 06 Feb 22:31:32 22:32:59 12° 89° (E) 22:34:26 145.980
QB50P1 06 Feb 22:33:53 22:36:02 14° 91° (E) 22:38:10 145.935-145.965
VELOX 1 06 Feb 22:36:00 22:40:24 63° 74° (ENE) 22:44:51 145.980
RS-15 06 Feb 22:40:34 22:51:40 44° 252° (WSW) 23:02:54 29.354- 29.394
AIST 1 06 Feb 22:51:19 22:55:24 40° 268° (W) 22:59:26
AISAT 06 Feb 22:51:57 22:56:26 85° 258° (WSW) 23:00:57 437.250
ESTCUBE 1 06 Feb 22:59:39 23:04:09 68° 258° (WSW) 23:08:42 437.505/2401.250
ANTELSAT 06 Feb 23:13:27 23:17:40 54° 287° (WNW) 23:21:56 437.575/2403.000
Cosmos 2499 06 Feb 23:17:57 23:24:13 24° 281° (WNW) 23:30:13 435.465 / 435.565
TIGRISAT 06 Feb 23:21:40 23:25:47 46° 288° (WNW) 23:29:57 435.000
CUBEBUG 1 06 Feb 23:22:14 23:26:34 51° 260° (W) 23:30:55 437.445
POLYITAN 1 06 Feb 23:23:29 23:27:34 48° 100° (E) 23:31:37 437.675
QB50P2 06 Feb 23:24:18 23:28:26 50° 100° (E) 23:32:31 145.880/145.840
UKube-1 06 Feb 23:24:57 23:29:03 41° 261° (W) 23:33:11 .
DX 1 06 Feb 23:30:56 23:34:50 31° 263° (W) 23:38:46 434.975-435.025
SPROUT 06 Feb 23:39:59 23:44:17 89° 93° (E) 23:48:37 437.525
BUGSAT 1 06 Feb 23:46:28 23:50:19 40° 98° (E) 23:54:06 437.445
ISS 06 Feb 23:48:06 23:51:12 42° 219° (SW) 23:54:18 145.825
50 SAT 06 Feb 23:52:28 23:54:21 13° 269° (W) 23:56:15 437.505
POPSAT HIP 1 06 Feb 23:54:58 23:59:11 78° 284° (WNW) 00:03:22 437.405
SWISSCUBE 07 Feb 00:00:56 00:03:35 15° 60° (ENE) 00:06:15 437.505
NANOSAT C BR1 07 Feb 00:01:56 00:06:07 66° 286° (WNW) 00:10:16 145.865
TISAT 1 07 Feb 00:02:35 00:06:46 61° 73° (ENE) 00:10:57 437.305
DUCHIFAT 1 07 Feb 00:04:59 00:09:08 64° 286° (WNW) 00:13:15 145.980
UNISAT 6 07 Feb 00:06:03 00:08:52 17° 296° (WNW) 00:11:42 437.425
QB50P1 07 Feb 00:08:03 00:12:10 55° 287° (WNW) 00:16:15 145.935-145.965
VELOX 1 07 Feb 00:15:06 00:17:19 13° 270° (W) 00:19:31 145.980
Cosmos 2491 07 Feb 00:20:54 00:23:41 12° 51° (NE) 00:26:29 435.465 / 435.565
Oscar 19 07 Feb 00:22:11 00:24:12 12° 88° (E) 00:26:12 437.125/150
ITUPSAT 1 07 Feb 00:34:18 00:38:16 27° 65° (ENE) 00:42:16 437.325
BEESAT 07 Feb 00:44:45 00:49:00 34° 67° (ENE) 00:53:17 436.000
JAS-2 07 Feb 00:45:10 00:48:19 15° 86° (E) 00:51:19 435.910
POLYITAN 1 07 Feb 01:00:20 01:03:01 17° 296° (WNW) 01:05:42 437.675
QB50P2 07 Feb 01:01:16 01:03:51 16° 297° (WNW) 01:06:27 145.880/145.840
CUSAT 1 07 Feb 01:10:32 01:17:05 30° 85° (E) 01:23:49 437.405
DANDE 07 Feb 01:16:32 01:21:44 20° 78° (ENE) 01:27:19 436.750
BUGSAT 1 07 Feb 01:22:39 01:25:25 18° 296° (WNW) 01:28:10 437.445
SWISSCUBE 07 Feb 01:36:04 01:40:49 72° 258° (WSW) 01:45:36 437.505
BEESAT 3 07 Feb 01:40:57 01:44:02 21° 42° (NE) 01:47:05 437.485
TISAT 1 07 Feb 01:40:57 01:42:50 13° 270° (W) 01:44:43 437.305
KKS-1 07 Feb 01:44:07 01:47:20 20° 64° (ENE) 01:50:33 437.445
BEESAT 2 07 Feb 01:58:58 02:02:05 21° 42° (NE) 02:05:10 435.950
Oscar 19 07 Feb 01:59:01 02:04:11 84° 287° (WNW) 02:09:18 437.125/150
Gurwin Techsat 1B 07 Feb 02:02:36 02:07:39 41° 98° (E) 02:12:38 435.225
ITUPSAT 1 07 Feb 02:11:35 02:15:58 36° 263° (W) 02:20:23 437.325
Cosmos 2491 07 Feb 02:14:20 02:22:54 56° 76° (ENE) 02:31:27 435.465 / 435.565
BEESAT 07 Feb 02:22:44 02:26:48 28° 265° (W) 02:30:55 436.000
PHONESAT 2.4 07 Feb 02:22:47 02:25:05 18° 156° (SSE) 02:27:24 2401.200-2431.200
JAS-2 07 Feb 02:28:21 02:34:16 74° 287° (WNW) 02:39:35 435.910
MOZHAYETS 4 07 Feb 02:48:34 02:52:37 33° 68° (ENE) 02:56:42
CUSAT 1 07 Feb 02:51:02 02:58:50 67° 284° (WNW) 03:06:55 437.405
DANDE 07 Feb 02:55:56 03:03:27 88° 96° (E) 03:12:00 436.750
ITAMSAT 1 07 Feb 03:00:16 03:05:31 73° 103° (ESE) 03:10:45 435.822/435.867
YUBILEINY 07 Feb 03:07:04 03:15:17 47° 88° (E) 03:23:34 435.215
STARS 07 Feb 03:10:59 03:15:25 82° 73° (ENE) 03:19:50 437.465
BEESAT 3 07 Feb 03:18:12 03:22:01 46° 241° (WSW) 03:25:47 437.485
KKS-1 07 Feb 03:19:18 03:23:35 45° 260° (W) 03:27:54 437.445
AO-7 07 Feb 03:27:14 03:34:55 39° 98° (E) 03:42:29 29.400- 29.500
AIST 2 07 Feb 03:27:50 03:31:00 21° 42° (NE) 03:34:09 435.215
BEESAT 2 07 Feb 03:36:21 03:40:12 46° 241° (WSW) 03:44:01 435.950
Oscar 19 07 Feb 03:40:37 03:42:42 12° 303° (WNW) 03:44:46 437.125/150
Gurwin Techsat 1B 07 Feb 03:42:55 03:47:25 28° 295° (WNW) 03:51:53 435.225
PHONESAT 2.4 07 Feb 03:58:49 04:01:55 40° 172° (S) 04:05:02 2401.200-2431.200
Cosmos 2491 07 Feb 04:11:47 04:19:20 34° 276° (W) 04:26:54 435.465 / 435.565
JAS-2 07 Feb 04:16:01 04:18:08 12° 309° (NW) 04:20:11 435.910
MOZHAYETS 4 07 Feb 04:25:58 04:29:49 26° 265° (W) 04:33:41
M-CUBED/EXP-1 PRIME 07 Feb 04:26:09 04:29:25 54° 106° (ESE) 04:32:50 437.505
SO-50 07 Feb 04:30:18 04:31:45 11° 106° (ESE) 04:33:12 436.795
HORYU 2 07 Feb 04:35:48 04:40:12 58° 101° (E) 04:44:36 437.375
CUSAT 1 07 Feb 04:37:55 04:42:40 16° 304° (NW) 04:47:26 437.405
AUBIESAT-1 07 Feb 04:38:53 04:42:15 65° 107° (ESE) 04:45:45 437.475
ITAMSAT 1 07 Feb 04:41:07 04:44:24 17° 301° (WNW) 04:47:41 435.822/435.867
DANDE 07 Feb 04:41:31 04:47:36 24° 300° (WNW) 04:54:08 436.750
Cosmos 2504 07 Feb 04:50:21 04:58:19 47° 87° (E) 05:06:38 435.465 / 435.565
CUBESAT XI-V 07 Feb 04:56:29 05:01:08 71° 75° (ENE) 05:05:51 437.345
YUBILEINY 07 Feb 05:04:01 05:12:11 41° 289° (WNW) 05:20:27 435.215
AIST 2 07 Feb 05:05:46 05:09:48 52° 240° (WSW) 05:13:47 435.215
AO-7 07 Feb 05:19:53 05:27:52 52° 297° (WNW) 05:35:48 29.400- 29.500
PHONESAT 2.4 07 Feb 05:35:51 05:38:57 40° 189° (S) 05:42:03 2401.200-2431.200
CUTE-I 07 Feb 05:53:55 05:58:37 30° 95° (E) 06:03:18 437.470
STRAND 1 07 Feb 05:56:07 06:00:54 42° 69° (ENE) 06:05:43 437.568
M-CUBED/EXP-1 PRIME 07 Feb 06:03:03 06:03:44 10° 302° (WNW) 06:04:24 437.505
Cubesat XI-IV 07 Feb 06:06:24 06:11:25 38° 98° (E) 06:16:25 437.490
SO-50 07 Feb 06:06:32 06:11:27 84° 124° (SE) 06:16:26 436.795
BRITE-PL 07 Feb 06:10:36 06:14:22 22° 91° (E) 06:17:54 437.365/2234.400
HORYU 2 07 Feb 06:13:39 06:16:20 16° 298° (WNW) 06:18:59 437.375
LilacSat-2 07 Feb 06:13:51 06:17:22 36° 98° (E) 06:20:53 437.200
PRISM 07 Feb 06:22:03 06:25:15 22° 65° (ENE) 06:28:28 437.425
CUBESAT XI-V 07 Feb 06:36:55 06:39:02 13° 271° (W) 06:41:11 437.345
Cosmos 2504 07 Feb 06:43:44 06:51:45 43° 289° (WNW) 07:00:08 435.465 / 435.565
HO-68 07 Feb 07:10:04 07:14:28 17° 88° (E) 07:18:49 435.675
PHONESAT 2.4 07 Feb 07:13:32 07:15:47 17° 205° (SSW) 07:18:01 2401.200-2431.200
AO-7 07 Feb 07:15:06 07:18:45 14° 320° (NW) 07:22:23 29.400- 29.500
CANX-2 07 Feb 07:29:22 07:32:04 16° 91° (E) 07:34:46 2200.000
DOVE 4 07 Feb 07:29:27 07:33:22 33° 96° (E) 07:37:08 437.250
GOMX 1 07 Feb 07:32:12 07:36:47 73° 102° (ESE) 07:41:03 467.674
CUTE-I 07 Feb 07:33:47 07:38:43 38° 293° (WNW) 07:43:40 437.470
STRAND 1 07 Feb 07:36:02 07:40:13 25° 266° (W) 07:44:27 437.568
Cubesat XI-IV 07 Feb 07:46:42 07:51:22 31° 295° (WNW) 07:56:01 437.490
BRITE-PL 07 Feb 07:48:28 07:53:06 41° 291° (WNW) 07:57:22 437.365/2234.400
LilacSat-2 07 Feb 07:48:56 07:51:26 17° 294° (WNW) 07:53:56 437.200
SO-50 07 Feb 07:48:59 07:52:35 20° 323° (NW) 07:56:12 436.795
PRISM 07 Feb 07:56:35 08:00:24 35° 263° (W) 08:04:15 437.425
Cosmos 2499 07 Feb 08:14:44 08:17:12 11° 70° (ENE) 08:19:40 435.465 / 435.565
CUTE 1.7 + AOD 2 07 Feb 08:19:29 08:23:39 49° 99° (E) 08:27:48 437.475
COMPASS 1 07 Feb 08:23:07 08:26:52 30° 96° (E) 08:30:36 437.405
SEEDS 07 Feb 08:31:23 08:35:32 50° 99° (E) 08:39:41 437.485
GONETS M04 07 Feb 08:32:07 08:39:51 38° 85° (E) 08:47:37
ANTELSAT 07 Feb 08:38:47 08:41:27 16° 63° (ENE) 08:44:07 437.575/2403.000
TIGRISAT 07 Feb 08:46:24 08:49:23 18° 65° (ENE) 08:52:20 435.000
CINEMA 3 07 Feb 08:46:28 08:50:38 79° 101° (E) 08:54:48 145.822/145.860
ZACube-1 07 Feb 08:47:37 08:50:04 15° 91° (E) 08:52:30 437.345
AAUSAT CUBESAT 2 07 Feb 08:54:32 08:58:41 55° 100° (E) 09:02:48 437.432
HO-68 07 Feb 08:55:50 09:03:06 89° 110° (ESE) 09:10:19 435.675
FUNcube-1 07 Feb 08:57:54 09:00:52 18° 93° (E) 09:03:49 145.935
O/OREOS (USA 219) 07 Feb 08:58:04 09:02:33 82° 294° (WNW) 09:07:05 437.305
DELFI C3 07 Feb 08:59:12 09:01:15 14° 91° (E) 09:03:18 145.870
CANX-2 07 Feb 09:04:05 09:08:12 48° 288° (WNW) 09:12:20 2200.000
DOVE 4 07 Feb 09:07:32 09:10:55 23° 294° (WNW) 09:14:13 437.250
GOMX 1 07 Feb 09:12:12 09:14:12 13° 301° (WNW) 09:16:09 467.674
CUBEBUG 2 07 Feb 09:14:10 09:18:16 56° 100° (E) 09:22:24 437.445
POPSAT HIP 1 07 Feb 09:17:16 09:17:36 10° 59° (ENE) 09:17:56 437.405
UWE-3 07 Feb 09:21:28 09:25:32 49° 99° (E) 09:29:39 435.000/436.395/437.385
NANOSAT C BR1 07 Feb 09:22:45 09:24:11 12° 60° (ENE) 09:25:37 145.865
DUCHIFAT 1 07 Feb 09:25:28 09:27:00 12° 61° (ENE) 09:28:32 145.980
QB50P1 07 Feb 09:28:15 09:30:23 14° 62° (ENE) 09:32:32 145.935-145.965
UNISAT 6 07 Feb 09:28:27 09:32:39 51° 72° (ENE) 09:36:50 437.425
HUMSAT D 07 Feb 09:33:02 09:35:12 14° 91° (E) 09:37:23 437.325/437.525
Oscar 11 07 Feb 09:34:41 09:39:00 63° 101° (E) 09:43:19 145.826/435.025
AIST 1 07 Feb 09:48:11 09:48:48 10° 82° (E) 09:49:25
CUTE 1.7 + AOD 2 07 Feb 09:56:21 09:59:08 17° 296° (WNW) 10:01:54 437.475
COMPASS 1 07 Feb 09:58:51 10:02:20 25° 293° (WNW) 10:05:48 437.405
Cosmos 2499 07 Feb 09:59:54 10:08:20 60° 91° (E) 10:17:02 435.465 / 435.565
SEEDS 07 Feb 10:08:11 10:10:52 17° 296° (WNW) 10:13:34 437.485
ANTELSAT 07 Feb 10:13:34 10:17:48 52° 260° (W) 10:22:00 437.575/2403.000
POLYITAN 1 07 Feb 10:17:22 10:21:23 43° 71° (ENE) 10:25:25 437.675
QB50P2 07 Feb 10:18:08 10:22:12 45° 71° (ENE) 10:26:15 145.880/145.840
TIGRISAT 07 Feb 10:21:37 10:25:47 44° 261° (W) 10:29:55 435.000
ZACube-1 07 Feb 10:22:35 10:26:38 49° 288° (WNW) 10:30:44 437.345
CINEMA 3 07 Feb 10:26:27 10:27:10 10° 300° (WNW) 10:27:54 145.822/145.860
VELOX 1 07 Feb 10:27:44 10:28:33 10° 88° (E) 10:29:21 145.980
GONETS M04 07 Feb 10:28:05 10:36:25 50° 286° (WNW) 10:44:51
AAUSAT CUBESAT 2 07 Feb 10:31:21 10:33:45 15° 297° (WNW) 10:36:09 437.432
DELFI C3 07 Feb 10:32:32 10:36:29 51° 287° (WNW) 10:40:24 145.870
FUNcube-1 07 Feb 10:33:22 10:37:17 40° 289° (WNW) 10:41:14 145.935
BUGSAT 1 07 Feb 10:37:23 10:41:14 35° 70° (ENE) 10:45:03 437.445
O/OREOS (USA 219) 07 Feb 10:41:11 10:42:44 12° 314° (NW) 10:44:17 437.305
AISAT 07 Feb 10:42:06 10:44:54 16° 91° (E) 10:47:41 437.250
HO-68 07 Feb 10:44:54 10:49:54 21° 307° (NW) 10:54:55 435.675
POPSAT HIP 1 07 Feb 10:48:28 10:52:43 88° 251° (WSW) 10:56:59 437.405
PCSat 07 Feb 10:50:23 10:54:54 28° 109° (ESE) 10:59:27 145.827
ESTCUBE 1 07 Feb 10:51:22 10:55:00 23° 94° (E) 10:58:36 437.505/2401.250
CUBEBUG 2 07 Feb 10:52:15 10:54:29 14° 297° (WNW) 10:56:44 437.445
RS-15 07 Feb 10:54:44 11:03:56 32° 103° (ESE) 11:13:29 29.354- 29.394
NANOSAT C BR1 07 Feb 10:55:07 10:59:21 76° 258° (WSW) 11:03:35 145.865
DUCHIFAT 1 07 Feb 10:57:54 11:02:08 74° 259° (W) 11:06:22 145.980
UWE-3 07 Feb 10:59:04 11:01:39 16° 296° (WNW) 11:04:16 435.000/436.395/437.385
JAS-2 07 Feb 10:59:46 11:03:03 14° 52° (NE) 11:06:12 435.910
QB50P1 07 Feb 11:01:29 11:05:42 62° 259° (W) 11:09:54 145.935-145.965
AO-85 07 Feb 11:05:55 11:11:08 56° 119° (ESE) 11:16:32 145.980
HUMSAT D 07 Feb 11:07:07 11:11:10 53° 287° (WNW) 11:15:14 437.325/437.525
UNISAT 6 07 Feb 11:07:07 11:09:40 15° 269° (W) 11:12:13 437.425
CUBEBUG 1 07 Feb 11:09:53 11:13:34 25° 95° (E) 11:17:11 437.445
UKube-1 07 Feb 11:10:50 11:14:35 28° 96° (E) 11:18:18 .
Oscar 11 07 Feb 11:12:20 11:14:38 14° 298° (WNW) 11:16:56 145.826/435.025
DX 1 07 Feb 11:17:17 11:21:24 38° 99° (E) 11:25:26 434.975-435.025
50 SAT 07 Feb 11:20:31 11:24:12 48° 100° (E) 11:27:54 437.505
AIST 1 07 Feb 11:21:19 11:25:43 75° 280° (W) 11:30:09
SPROUT 07 Feb 11:26:22 11:28:35 14° 90° (E) 11:30:47 437.525
Oscar 19 07 Feb 11:39:28 11:43:26 23° 63° (ENE) 11:47:25 437.125/150
CUSAT 1 07 Feb 11:47:00 11:51:22 19° 57° (ENE) 11:55:06 437.405
Gurwin Techsat 1B 07 Feb 11:49:33 11:51:14 11° 55° (NE) 11:52:55 435.225
Cosmos 2499 07 Feb 11:54:13 12:01:57 34° 292° (WNW) 12:09:53 435.465 / 435.565
POLYITAN 1 07 Feb 11:54:33 11:57:25 17° 268° (W) 12:00:17 437.675
DANDE 07 Feb 11:55:13 11:59:48 17° 54° (NE) 12:03:53 436.750
QB50P2 07 Feb 11:55:29 11:58:15 17° 268° (W) 12:01:01 145.880/145.840
VELOX 1 07 Feb 12:01:08 12:05:35 78° 286° (WNW) 12:09:59 145.980
BUGSAT 1 07 Feb 12:13:27 12:16:42 21° 266° (W) 12:19:56 437.445
AISAT 07 Feb 12:17:25 12:21:42 50° 288° (WNW) 12:25:57 437.250
ESTCUBE 1 07 Feb 12:27:42 12:31:55 38° 291° (WNW) 12:36:06 437.505/2401.250
PCSat 07 Feb 12:32:51 12:38:03 47° 308° (NW) 12:43:18 145.827
GONETS M04 07 Feb 12:35:35 12:35:53 10° 311° (NW) 12:36:12
JAS-2 07 Feb 12:39:18 12:46:52 61° 71° (ENE) 12:53:49 435.910
AO-7 07 Feb 12:39:58 12:44:26 16° 43° (NE) 12:48:54 29.400- 29.500
ITAMSAT 1 07 Feb 12:42:28 12:45:56 18° 60° (ENE) 12:49:24 435.822/435.867
CUBEBUG 1 07 Feb 12:45:59 12:49:51 31° 292° (WNW) 12:53:42 437.445
UKube-1 07 Feb 12:46:53 12:50:35 28° 293° (WNW) 12:54:17 .
AO-85 07 Feb 12:47:15 12:52:01 30° 318° (NW) 12:56:50 145.980
DX 1 07 Feb 12:54:01 12:57:21 22° 295° (WNW) 13:00:40 434.975-435.025
50 SAT 07 Feb 12:55:53 12:57:51 14° 296° (WNW) 12:59:49 437.505
SO-50 07 Feb 12:57:12 13:00:49 20° 37° (NE) 13:04:22 436.795
SPROUT 07 Feb 13:00:45 13:04:56 55° 287° (WNW) 13:09:05 437.525
RS-15 07 Feb 13:03:57 13:15:09 78° 307° (NW) 13:27:02 29.354- 29.394
YUBILEINY 07 Feb 13:15:34 13:22:38 26° 63° (ENE) 13:29:37 435.215
Oscar 19 07 Feb 13:17:23 13:22:25 51° 260° (W) 13:27:29 437.125/150
TISAT 1 07 Feb 13:20:46 13:24:59 89° 281° (WNW) 13:29:09 437.305
Gurwin Techsat 1B 07 Feb 13:24:58 13:30:15 74° 73° (ENE) 13:35:35 435.225
CUSAT 1 07 Feb 13:28:18 13:34:43 70° 264° (W) 13:39:31 437.405
Cosmos 2491 07 Feb 13:28:53 13:30:34 11° 70° (ENE) 13:32:15 435.465 / 435.565
SWISSCUBE 07 Feb 13:35:17 13:39:20 26° 95° (E) 13:43:20 437.505
DANDE 07 Feb 13:36:47 13:44:25 80° 78° (ENE) 13:50:15 436.750
ITUPSAT 1 07 Feb 14:10:08 14:14:51 51° 100° (E) 14:19:32 437.325
ITAMSAT 1 07 Feb 14:19:44 14:24:52 66° 258° (WSW) 14:30:04 435.822/435.867
BEESAT 07 Feb 14:20:28 14:25:15 66° 102° (ESE) 14:30:01 436.000
PCSat 07 Feb 14:20:57 14:22:52 12° 330° (NNW) 14:24:48 145.827
JAS-2 07 Feb 14:25:34 14:32:08 30° 266° (W) 14:38:20 435.910
AO-7 07 Feb 14:27:22 14:35:32 60° 64° (ENE) 14:43:42 29.400- 29.500
AO-85 07 Feb 14:33:41 14:34:22 10° 341° (NNW) 14:35:02 145.980
SO-50 07 Feb 14:37:03 14:41:54 76° 238° (WSW) 14:46:34 436.795
Cosmos 2504 07 Feb 14:42:16 14:48:11 19° 58° (ENE) 14:53:53 435.465 / 435.565
STARS 07 Feb 15:00:49 15:02:55 13° 90° (E) 15:05:00 437.465
Gurwin Techsat 1B 07 Feb 15:07:49 15:10:47 15° 271° (W) 15:13:44 435.225
KKS-1 07 Feb 15:08:58 15:12:52 29° 96° (E) 15:16:44 437.445
YUBILEINY 07 Feb 15:11:33 15:20:24 77° 265° (W) 15:29:11 435.215
SWISSCUBE 07 Feb 15:12:47 15:17:11 36° 292° (WNW) 15:21:34 437.505
M-CUBED/EXP-1 PRIME 07 Feb 15:14:37 15:18:22 81° 254° (WSW) 15:21:51 437.505
Cosmos 2491 07 Feb 15:16:55 15:25:25 61° 91° (E) 15:33:56 435.465 / 435.565
RS-15 07 Feb 15:19:50 15:29:52 33° 337° (NNW) 15:40:23 29.354- 29.394
DANDE 07 Feb 15:21:27 15:26:05 18° 283° (WNW) 15:30:07 436.750
AUBIESAT-1 07 Feb 15:26:59 15:30:40 70° 252° (WSW) 15:34:09 437.475
HORYU 2 07 Feb 15:35:02 15:39:23 64° 73° (ENE) 15:43:47 437.375
ITUPSAT 1 07 Feb 15:48:50 15:52:20 20° 297° (WNW) 15:55:49 437.325
Cubesat XI-IV 07 Feb 15:54:21 15:55:53 11° 55° (NE) 15:57:27 437.490
BEESAT 07 Feb 15:59:37 16:02:32 16° 299° (WNW) 16:05:26 436.000
MOZHAYETS 4 07 Feb 16:18:31 16:23:09 64° 102° (ESE) 16:27:45
AO-7 07 Feb 16:21:20 16:28:40 33° 264° (W) 16:36:05 29.400- 29.500
ISS 07 Feb 16:28:46 16:31:30 25° 137° (SE) 16:34:14 145.825
Cosmos 2504 07 Feb 16:34:18 16:43:07 83° 82° (E) 16:51:18 435.465 / 435.565
STARS 07 Feb 16:35:22 16:39:42 61° 287° (WNW) 16:43:59 437.465
KKS-1 07 Feb 16:45:36 16:49:23 28° 293° (WNW) 16:53:08 437.445
CUBESAT XI-V 07 Feb 16:52:55 16:55:53 16° 90° (E) 16:58:49 437.345
LilacSat-2 07 Feb 16:57:39 17:00:43 23° 68° (ENE) 17:03:47 437.200
GOMX 1 07 Feb 17:05:43 17:08:23 14° 60° (ENE) 17:11:01 467.674
YUBILEINY 07 Feb 17:10:58 17:15:37 16° 286° (WNW) 17:20:16 435.215
BEESAT 3 07 Feb 17:11:21 17:14:16 20° 113° (ESE) 17:17:12 437.485
HORYU 2 07 Feb 17:14:23 17:16:24 13° 270° (W) 17:18:24 437.375
Cosmos 2491 07 Feb 17:15:14 17:22:47 32° 293° (WNW) 17:30:24 435.465 / 435.565
CUTE-I 07 Feb 17:16:59 17:22:10 56° 71° (ENE) 17:27:23 437.470
BRITE-PL 07 Feb 17:21:13 17:26:19 35° 68° (ENE) 17:31:20 437.365/2234.400
O/OREOS (USA 219) 07 Feb 17:27:45 17:31:43 28° 57° (ENE) 17:35:40 437.305
Cubesat XI-IV 07 Feb 17:29:43 17:35:00 72° 74° (ENE) 17:40:21 437.490
BEESAT 2 07 Feb 17:30:37 17:33:38 21° 113° (ESE) 17:36:40 435.950
